ECMWFFLT1_250_spd_009.txt.gz
Wind_Speed
30 30 32 33 35 37 39 40 40 41 40 41 41 40 41 43 43 44 44 45 45 46 47 48 48 49 49 50 50 51 51 52 53 54 54 55 55 56 57 58 59 59 60 60 60 59 59 60 60 59 58 56 54 53 52 52 53 53 51 50 53 55 54
33 33 33 34 35 37 39 41 43 43 44 44 43 43 43 44 45 45 45 46 46 48 49 49 49 50 50 51 51 52 52 53 54 55 55 56 57 58 59 60 62 62 63 63 62 62 62 61 61 61 60 58 55 53 52 51 51 52 52 52 52 55 57
36 36 36 35 36 37 39 42 43 45 46 46 46 45 46 47 47 47 47 47 48 49 50 50 50 51 51 52 52 53 53 54 55 55 56 57 58 59 60 62 63 64 64 65 65 65 64 64 62 61 59 57 55 54 52 49 49 49 51 53 53 55 57
39 39 39 38 38 38 40 42 44 45 47 47 47 47 47 48 49 49 49 49 49 49 50 50 51 52 52 52 53 53 54 55 55 55 56 58 59 61 62 62 63 64 65 66 66 66 66 65 63 61 59 57 55 53 52 49 47 47 49 52 54 56 58
42 42 42 41 41 40 42 43 45 46 48 48 48 48 49 50 50 50 50 50 50 50 51 51 52 52 53 53 53 54 55 55 56 56 57 59 61 62 63 64 64 65 66 66 67 67 67 66 64 62 60 58 56 54 51 49 47 46 48 51 54 56 58
45 45 45 44 44 43 44 45 46 47 48 49 49 49 50 51 51 51 51 51 51 51 52 52 52 53 54 54 54 55 56 56 56 57 59 60 62 64 65 65 66 66 66 67 67 68 67 67 65 64 61 59 57 55 51 48 47 45 46 50 53 56 59
48 48 47 47 46 47 47 47 48 49 50 50 50 50 51 52 52 52 52 52 52 52 52 52 53 54 54 55 56 56 57 57 57 58 60 62 64 65 66 67 67 68 68 68 68 68 67 66 65 64 63 61 59 57 53 49 46 45 45 48 52 56 58
51 50 50 49 49 49 50 50 50 51 51 51 51 51 52 53 53 53 52 52 52 53 53 53 54 54 55 56 56 57 57 57 58 59 61 63 65 66 68 68 69 69 69 69 69 68 67 66 66 65 64 62 59 57 54 50 46 45 44 46 50 54 58
53 52 52 51 51 52 52 52 53 52 52 53 52 52 53 53 53 53 53 53 53 53 54 54 54 55 56 56 57 57 57 58 59 60 62 63 65 67 68 69 70 70 70 70 69 69 68 67 66 66 65 64 60 57 54 50 47 44 44 45 47 52 56
54 54 53 53 53 54 55 55 55 54 54 54 53 53 53 53 53 53 53 53 54 54 54 54 55 55 56 57 57 57 58 58 60 61 63 64 66 68 69 69 70 71 71 71 70 70 69 69 68 67 66 65 61 57 54 50 46 44 43 44 46 49 54
55 55 55 54 55 56 57 58 58 56 55 55 55 55 54 53 53 53 53 54 54 54 54 55 55 56 56 57 57 57 58 59 61 63 64 65 67 68 69 70 71 72 72 71 71 71 71 70 69 68 68 66 61 56 53 49 45 43 42 42 44 47 51
57 57 56 56 57 58 59 60 59 57 57 57 57 56 55 54 54 54 54 54 54 55 55 55 55 56 56 57 57 57 58 59 61 63 65 66 67 68 69 71 72 72 73 73 72 72 72 71 70 70 69 67 61 55 51 47 43 42 41 41 43 45 49
59 59 59 59 59 60 61 61 61 59 58 58 58 58 57 56 55 55 54 55 55 55 55 55 56 56 56 56 56 57 58 60 62 64 66 67 68 69 70 72 73 73 74 74 74 74 73 73 72 71 70 67 61 54 50 46 42 40 40 40 42 44 47
61 61 61 61 61 62 62 62 62 61 60 60 60 59 58 57 56 55 55 55 55 56 56 56 56 56 56 56 56 57 59 61 62 65 67 69 70 70 71 72 73 74 75 76 75 75 75 74 73 72 71 67 60 54 49 44 40 39 38 39 40 42 44
63 63 62 62 63 63 64 64 63 63 62 62 61 61 60 58 56 56 56 56 56 56 56 56 56 55 56 55 56 58 59 61 63 66 68 70 71 72 72 73 74 75 76 77 77 76 76 75 74 73 71 67 59 53 48 43 38 37 37 38 39 40 42
65 64 64 64 64 64 65 64 64 64 64 63 63 63 61 59 58 57 56 56 56 56 56 56 56 56 56 56 57 59 61 63 65 67 70 72 73 73 74 75 75 76 77 78 78 77 77 76 75 73 70 66 58 52 47 41 37 35 35 36 37 38 40
67 66 66 66 66 66 66 66 65 65 65 65 65 64 62 60 59 58 57 57 57 57 57 57 56 56 56 57 58 60 62 65 67 69 72 73 74 75 75 76 77 77 78 78 79 78 77 76 75 72 69 64 56 50 46 40 35 33 34 34 35 36 38
68 68 67 67 67 67 67 67 67 66 66 66 66 64 63 61 60 59 58 58 58 58 58 57 56 57 57 59 60 62 64 67 69 71 74 75 76 77 78 78 78 79 79 79 79 79 77 76 74 72 68 61 54 49 44 39 34 31 32 33 34 35 37
70 69 69 69 69 69 69 68 68 68 68 67 66 65 64 62 61 60 59 59 59 59 58 57 57 58 59 61 62 64 67 69 72 74 76 77 79 79 80 80 80 80 80 80 80 79 78 76 74 70 65 59 52 47 42 37 33 30 30 31 33 34 36
71 71 71 71 71 71 71 70 70 69 69 67 66 66 65 63 62 61 61 60 60 60 58 57 58 60 62 63 65 67 69 72 74 76 78 80 81 82 82 82 82 81 81 80 80 79 78 75 72 68 63 56 50 46 40 36 31 28 29 30 32 33 35
73 73 73 73 73 73 72 72 71 70 69 68 67 67 66 64 63 62 62 62 62 60 59 59 60 62 64 65 67 69 72 75 78 79 80 82 83 83 84 84 83 82 81 81 80 79 77 74 70 65 60 53 48 44 39 34 30 27 27 29 31 33 34
75 75 75 75 75 74 73 72 71 70 70 69 69 68 66 64 64 63 63 63 63 62 61 62 63 65 66 68 70 73 76 79 81 82 83 83 84 85 85 85 84 84 83 81 80 78 76 72 66 62 57 50 46 43 37 32 28 26 27 28 30 31 32
76 76 76 76 76 75 74 73 72 71 70 70 69 68 67 65 64 64 64 64 64 64 65 65 66 67 68 71 73 76 79 81 83 84 85 85 86 86 86 86 85 85 83 82 79 77 73 68 63 58 53 47 44 41 35 31 27 25 26 28 28 29 29
77 77 77 77 77 76 75 73 72 71 71 71 70 69 67 65 65 65 65 65 65 66 67 68 69 70 72 74 76 78 81 83 84 85 86 87 88 88 88 87 87 85 83 81 78 74 70 64 59 55 49 45 42 38 33 29 26 25 26 27 27 28 28
79 79 79 79 78 77 75 73 73 72 72 72 71 69 67 65 65 65 65 66 67 67 68 70 72 73 75 77 79 80 83 84 86 87 88 89 89 90 90 89 87 85 82 79 75 71 66 61 56 51 46 42 39 35 31 27 24 24 26 27 27 27 27
82 82 81 80 79 77 75 74 74 74 73 73 71 69 67 66 66 66 66 67 67 68 70 72 74 76 78 80 81 83 84 86 87 88 89 90 91 91 91 89 87 84 80 76 72 68 63 57 53 48 42 39 36 32 29 26 24 24 27 28 28 27 26
84 83 82 81 79 76 75 75 75 75 74 73 71 69 68 67 67 67 67 67 68 69 71 74 76 78 80 82 83 85 86 87 88 89 90 91 91 91 91 88 84 81 77 73 69 64 59 55 50 44 39 36 33 29 27 25 23 25 28 30 29 28 28
84 83 82 80 78 76 76 76 76 75 74 73 71 69 68 68 68 68 68 69 69 71 73 76 78 80 82 84 85 87 88 88 90 90 91 91 91 90 89 86 81 78 74 70 65 61 56 52 46 41 36 33 30 27 26 25 24 26 30 32 31 30 30
84 83 81 79 77 76 76 76 76 75 74 72 71 70 69 69 69 69 70 70 72 73 76 78 80 82 84 85 87 88 89 90 91 91 91 91 90 88 86 83 78 74 70 66 62 57 53 48 42 37 33 30 27 26 25 25 25 28 32 35 35 33 32
84 82 81 79 78 77 76 76 76 75 73 72 71 70 69 69 70 71 72 73 74 76 77 79 82 84 85 87 88 90 90 91 92 92 92 91 88 85 83 79 74 70 66 63 58 54 50 45 38 33 31 28 26 25 25 26 27 29 34 37 38 37 34
83 82 80 79 78 77 76 76 75 74 73 72 71 70 70 71 72 73 74 75 77 78 79 81 83 85 87 89 90 91 92 92 93 92 92 89 86 82 79 75 71 66 62 59 55 51 48 42 35 30 29 27 25 24 25 26 28 31 35 39 41 40 37
83 82 80 79 78 77 76 75 75 74 73 72 71 70 71 73 74 75 76 77 79 80 82 84 86 87 89 90 92 93 93 93 92 92 90 87 83 79 76 72 67 62 59 56 52 48 45 40 32 28 28 26 24 24 25 27 29 32 36 40 42 42 40
83 81 80 79 77 76 75 75 74 74 73 72 71 71 73 75 76 77 78 79 81 82 84 86 88 89 91 92 93 94 94 93 92 90 87 84 81 76 72 68 63 58 56 53 48 45 43 38 31 27 27 26 24 24 25 28 30 32 37 41 43 44 43
82 81 80 78 76 75 74 74 74 74 73 72 72 73 75 77 78 79 80 82 83 85 86 88 89 91 92 93 94 95 94 93 90 87 84 82 78 73 69 64 58 55 52 49 45 42 41 36 30 26 26 25 25 24 25 29 32 34 37 41 44 46 46
82 81 79 77 75 73 73 74 75 75 74 73 73 75 77 78 80 81 82 84 85 87 88 89 91 92 93 94 95 95 94 92 88 85 82 79 75 70 65 59 54 51 49 45 42 40 39 35 29 26 25 25 24 24 26 30 35 36 38 41 45 48 49
81 79 77 75 74 73 73 74 75 76 75 75 76 78 79 80 81 83 84 86 87 88 90 91 92 93 94 94 94 94 92 90 86 83 80 76 71 66 60 55 51 48 44 41 39 38 38 35 29 26 25 24 24 25 27 31 36 39 40 41 44 48 51
80 78 76 74 73 73 73 75 76 77 77 78 79 81 82 82 84 85 86 87 88 90 91 92 93 93 94 94 93 92 90 88 84 81 77 73 68 62 56 51 47 44 39 36 36 37 38 35 29 26 24 24 24 25 28 32 38 42 43 42 43 47 52
78 77 75 74 74 73 75 76 78 79 80 81 82 83 84 85 86 86 87 89 90 91 92 92 93 93 93 93 92 90 88 85 82 79 75 70 65 59 53 47 43 39 35 34 34 35 36 34 30 26 24 24 24 25 28 33 39 44 46 45 43 45 51

ECMWFFLT1_250_spd_015.txt.gz
Wind_Speed
27 27 29 32 33 32 33 37 38 38 39 39 39 40 41 41 41 41 41 43 45 46 47 48 47 48 49 49 49 49 50 51 51 51 51 51 51 51 51 50 49 49 49 48 48 47 46 44 44 44 43 43 43 43 44 45 46 46 46 46 45 44 42
27 27 28 30 32 32 34 38 40 39 40 40 40 41 42 42 43 43 43 44 46 48 49 50 50 50 51 51 51 51 52 53 52 52 52 52 52 52 51 51 50 50 49 49 48 47 46 45 45 44 44 44 44 45 47 48 48 49 49 49 48 47 45
29 29 31 31 31 32 34 38 41 41 41 41 41 42 43 44 44 45 45 46 48 49 51 52 52 52 53 52 52 53 54 54 53 53 53 52 52 52 52 52 52 51 50 49 48 48 47 46 45 45 45 46 46 48 49 50 51 51 51 51 51 50 48
31 32 33 33 34 34 35 39 42 42 42 43 43 44 44 45 46 46 47 48 49 51 52 53 54 54 54 54 54 55 56 55 54 54 54 54 53 53 53 53 53 52 52 51 49 49 48 47 47 46 47 47 49 50 52 53 53 54 54 53 53 52 50
33 34 34 35 35 36 36 40 44 43 44 44 45 45 46 47 48 49 49 50 51 52 53 55 56 56 56 56 56 57 57 57 56 56 55 55 54 54 54 53 54 54 53 52 51 50 49 49 48 48 48 49 50 52 53 55 56 56 56 56 55 53 52
35 36 36 36 37 37 37 41 45 45 45 46 47 47 48 49 50 50 51 52 53 54 55 56 58 59 59 58 58 58 59 59 58 57 57 56 56 55 55 55 55 55 54 54 53 51 50 50 50 50 50 51 52 53 55 57 58 59 59 58 57 55 53
38 38 38 38 39 38 38 43 48 47 47 48 49 49 50 50 52 52 53 54 55 55 56 58 60 61 61 60 61 60 60 60 60 59 59 58 57 56 56 56 56 55 55 54 54 53 52 51 52 52 52 52 54 56 57 59 60 61 61 60 59 57 55
41 41 40 40 41 40 40 45 50 49 49 50 51 51 52 52 53 54 55 56 56 57 58 59 62 64 64 63 62 62 62 62 62 61 60 59 58 57 57 56 57 56 56 55 55 54 54 53 53 54 54 55 56 58 60 61 62 62 62 62 61 59 57
43 43 43 42 42 41 42 48 52 51 51 52 53 54 54 54 55 56 56 57 58 59 60 61 63 65 66 65 64 64 64 64 64 63 61 60 59 58 57 57 57 57 56 56 56 55 55 55 55 55 56 57 58 60 62 63 63 63 63 62 62 61 60
46 46 46 44 44 43 44 49 52 53 53 53 54 55 55 56 57 57 57 59 60 60 62 63 65 65 66 67 66 66 66 66 65 64 63 61 60 59 59 58 57 56 57 57 57 57 57 57 56 57 58 59 61 62 65 66 65 65 64 63 63 63 62
48 49 49 48 48 47 47 50 53 53 54 55 56 56 57 57 58 59 60 61 62 62 63 65 66 67 67 68 68 68 67 67 66 65 64 63 61 60 60 59 58 57 57 58 58 59 59 59 58 58 59 61 62 64 66 68 68 67 66 65 64 64 63
50 51 51 51 51 51 51 53 54 55 55 57 58 58 59 59 60 61 62 61 63 65 65 66 68 68 69 70 69 69 69 68 68 66 65 64 63 62 61 61 59 58 58 58 58 60 60 61 61 60 61 62 64 65 66 68 70 70 70 68 66 66 65
52 52 53 53 54 54 55 56 56 57 57 58 60 60 61 61 62 63 61 60 64 67 67 68 70 70 71 72 71 71 70 69 69 68 67 65 64 63 62 62 61 60 60 59 59 60 60 61 62 62 62 63 65 66 67 68 70 71 71 70 68 67 66
53 54 55 56 56 57 57 58 59 59 60 61 62 62 63 64 64 66 65 63 66 69 69 70 71 72 73 74 73 73 72 71 70 69 68 66 65 64 63 63 62 62 61 61 61 61 61 62 63 63 64 65 66 67 68 69 70 72 72 70 69 68 66
54 55 56 57 58 58 59 60 61 61 62 62 63 64 65 66 67 69 66 65 68 71 71 72 73 74 75 76 76 75 74 73 72 70 69 68 67 66 64 64 63 62 62 61 61 61 62 62 63 64 65 66 67 68 69 70 72 73 73 72 70 67 64
56 57 58 59 59 60 60 61 62 63 64 64 65 66 67 68 69 68 65 67 71 73 73 74 75 76 77 77 77 77 75 74 73 72 71 70 68 67 66 65 64 63 62 61 61 61 62 62 63 64 65 67 68 69 69 70 73 74 73 72 70 66 62
58 59 60 61 61 62 63 64 64 65 65 66 66 68 68 69 69 68 68 71 74 74 75 76 77 77 78 79 79 78 77 76 74 73 73 71 70 68 67 66 65 63 62 61 61 62 62 63 64 65 66 68 69 69 70 71 73 74 72 70 68 64 59
61 62 62 63 64 64 65 66 66 67 67 68 68 69 70 71 71 71 72 74 75 75 76 77 78 79 79 80 80 79 78 77 76 75 74 73 71 69 67 66 64 63 62 62 63 63 63 64 65 66 68 69 70 71 72 73 74 74 72 69 66 62 57
63 64 65 65 66 66 67 68 69 69 69 69 71 71 72 73 73 74 75 75 76 77 77 78 79 80 80 81 81 80 79 78 76 76 75 74 72 70 67 65 64 62 62 63 64 64 64 65 66 68 70 70 72 73 74 75 75 74 71 68 64 59 54
64 65 66 67 68 68 69 70 70 70 71 72 73 74 75 75 76 76 77 78 78 79 79 79 80 81 82 82 82 81 80 78 77 77 77 75 73 70 67 65 64 63 63 63 64 64 65 66 68 70 71 72 74 76 76 76 76 74 71 67 62 57 52
66 67 68 68 69 70 71 71 71 72 73 75 76 76 77 78 79 79 80 80 81 81 81 82 82 83 83 84 83 82 80 78 78 78 77 75 72 69 66 65 64 64 64 64 64 65 66 68 69 70 71 73 76 78 78 78 76 74 70 66 60 55 49
68 69 70 70 71 72 73 73 74 75 76 77 78 79 80 80 81 82 83 83 83 83 84 84 84 85 85 85 84 83 80 79 78 78 77 74 71 69 67 65 65 64 65 65 65 66 68 69 70 71 72 75 77 79 81 81 78 73 69 64 58 52 47
69 70 72 72 73 74 74 75 76 77 78 79 80 81 81 82 83 84 85 85 86 86 86 86 86 86 86 86 86 84 81 79 78 78 76 74 71 68 67 66 65 66 67 67 67 68 70 70 70 71 74 77 79 80 81 81 79 75 69 63 56 50 45
70 72 73 74 75 75 76 77 78 78 79 80 81 82 83 84 84 86 87 87 88 88 88 88 88 87 88 88 87 85 82 79 78 77 75 73 70 67 66 66 67 67 68 69 69 70 71 70 71 73 76 79 82 83 81 79 78 75 69 63 56 49 44
72 73 75 75 76 77 78 78 79 80 80 81 82 83 84 85 86 87 88 90 90 90 90 90 89 89 89 88 87 86 84 81 78 76 73 71 68 67 66 67 69 69 69 70 71 71 70 71 73 77 79 81 83 83 80 77 76 74 69 62 56 49 43
75 76 77 77 78 78 79 79 80 81 82 83 84 85 86 87 88 89 90 91 92 92 92 91 91 91 90 88 87 87 84 81 78 74 71 70 68 66 66 67 70 70 71 72 73 71 70 73 77 80 81 82 82 80 78 77 75 73 68 61 55 49 42
77 78 79 79 79 79 80 81 81 82 83 84 86 86 87 88 90 91 92 92 93 93 93 93 92 92 91 89 87 86 83 80 75 70 69 68 66 65 66 68 70 71 72 74 74 72 73 78 81 81 82 83 81 78 78 76 72 69 65 58 52 48 42
80 80 80 80 80 81 81 82 82 83 84 86 87 88 89 90 92 93 93 93 93 93 94 94 94 93 92 89 87 84 81 76 71 67 66 65 64 65 67 68 70 72 74 75 75 75 78 81 81 81 83 83 80 77 77 73 68 65 62 56 51 46 40
81 81 81 81 81 82 82 83 84 85 86 87 88 89 91 93 93 94 94 94 94 95 95 95 94 93 92 89 85 82 77 72 69 66 65 64 64 65 68 70 72 74 74 74 78 81 82 82 82 83 83 81 78 76 74 70 68 66 60 54 50 44 38
80 81 81 82 82 83 84 85 86 87 88 89 90 92 93 95 95 95 95 96 96 96 96 96 95 93 91 86 82 78 72 68 69 68 66 64 65 68 72 73 73 73 73 76 82 86 84 83 84 82 81 80 79 76 72 69 68 65 58 52 48 43 37
81 83 84 83 84 86 87 88 89 90 90 91 92 94 95 96 96 97 97 98 98 97 97 96 94 92 88 83 79 74 68 66 69 69 66 65 67 73 76 76 75 75 75 79 84 84 82 84 84 81 80 82 80 75 70 67 65 62 56 50 46 41 35
86 87 86 86 87 89 89 90 91 91 92 93 94 95 96 97 98 98 99 99 99 98 97 96 93 89 85 80 76 71 66 67 68 68 67 69 73 76 77 77 77 77 79 83 83 80 80 84 85 83 82 81 77 72 69 66 63 58 52 48 44 39 34
87 87 88 89 90 90 91 92 92 92 93 94 95 96 98 99 99 100 100 100 99 98 96 94 92 87 82 77 74 70 67 68 70 69 71 74 76 76 78 80 80 81 84 86 82 78 81 86 85 83 82 78 73 70 68 66 62 55 49 44 40 37 33
86 87 89 90 90 90 91 92 93 94 95 96 96 98 99 100 101 101 101 101 100 98 95 92 88 84 79 76 74 72 71 72 74 75 76 77 78 80 82 83 84 85 87 85 82 81 84 85 83 82 79 74 70 69 67 65 61 54 45 40 36 33 32
88 90 91 90 90 91 93 94 95 96 96 97 98 99 100 101 102 103 102 101 99 97 94 89 85 82 79 76 76 76 76 76 78 78 79 80 82 83 84 86 87 88 87 86 86 86 84 82 80 80 76 71 69 69 66 62 58 51 43 37 32 30 30
90 91 91 92 93 94 95 96 98 98 99 100 100 102 102 102 102 103 103 101 97 93 90 86 83 81 80 79 79 79 79 80 81 82 82 82 82 83 86 89 90 88 88 88 88 84 82 80 78 75 72 70 70 68 64 58 53 46 40 34 30 28 28
92 94 94 95 96 97 98 99 100 100 102 102 103 103 103 103 102 102 100 97 94 90 87 85 83 83 82 82 82 82 81 82 84 86 85 84 85 87 88 88 87 86 87 88 85 81 79 78 74 71 70 70 69 65 60 54 48 43 37 32 29 26 27
96 97 98 98 98 99 100 101 102 102 104 104 104 105 104 103 101 99 95 92 90 88 87 86 85 85 85 85 85 85 85 85 87 89 88 88 88 89 86 85 86 86 84 81 80 78 75 72 69 69 70 68 65 61 57 51 45 41 35 30 28 26 26

ECMWFFLT1_250_spd_021.txt.gz
Wind_Speed
23 23 25 26 25 27 29 29 28 29 30 31 31 32 33 33 34 35 36 37 37 39 41 43 46 46 46 48 49 49 50 52 53 54 56 53 50 54 58 58 59 60 60 62 64 65 66 67 67 67 67 66 64 62 59 57 54 51 48 45 43 42 40
27 25 26 28 27 28 30 31 31 32 32 32 32 33 34 35 36 36 37 38 39 40 42 44 46 47 48 50 51 51 52 54 55 57 60 54 48 54 60 61 62 62 62 64 65 67 68 69 69 69 69 68 67 65 62 60 57 53 50 47 45 43 42
30 29 29 30 29 30 32 33 34 35 34 34 34 35 36 37 38 38 39 40 40 42 43 45 47 48 50 51 52 52 53 55 56 59 62 54 47 53 62 63 65 65 64 66 67 69 70 71 72 72 72 71 69 67 65 62 59 56 53 49 46 44 43
32 31 31 32 32 32 34 35 36 37 37 36 36 36 38 39 40 41 41 41 42 44 45 46 48 49 51 52 53 54 55 57 58 60 62 54 49 55 62 65 67 67 67 68 69 71 72 73 74 75 75 74 72 70 67 64 61 57 54 50 47 44 42
34 33 34 34 33 34 35 36 37 38 39 38 38 38 39 40 41 43 43 43 44 45 46 48 49 50 52 53 55 55 56 58 59 61 63 57 53 56 61 67 69 68 69 69 71 73 74 75 76 77 78 77 75 73 70 66 63 59 55 50 47 44 42
34 35 37 37 36 36 37 38 39 39 40 40 40 40 41 41 42 44 45 44 45 47 48 49 50 51 53 54 56 57 58 60 61 64 65 59 54 55 62 68 70 70 71 71 72 74 75 77 78 79 80 79 78 76 72 69 65 60 55 51 47 45 42
36 36 38 39 39 39 40 41 41 41 41 42 42 42 42 42 43 46 47 45 46 48 49 50 51 53 54 55 57 58 59 61 63 66 63 55 53 57 63 70 71 71 72 73 74 76 78 79 80 81 82 81 80 78 74 71 66 60 55 51 48 45 43
40 39 39 40 41 42 44 44 44 44 44 45 45 45 44 44 44 46 48 47 47 49 49 50 53 54 55 57 57 58 61 62 65 66 59 54 56 61 66 72 72 72 74 74 76 78 80 82 83 84 85 84 83 80 75 71 66 60 54 50 48 45 43
43 43 40 41 43 45 46 46 46 46 46 47 47 48 47 47 47 48 49 49 49 50 50 51 54 55 57 57 57 59 62 63 66 67 60 57 60 64 69 73 73 73 74 75 77 80 81 84 85 86 87 86 84 80 75 70 65 60 55 50 47 44 42
44 44 42 42 44 47 48 48 49 49 49 49 49 50 50 51 51 51 51 51 51 51 51 53 56 57 58 58 58 60 62 64 69 68 61 60 63 67 72 74 73 75 76 76 78 80 82 84 85 85 86 86 84 81 75 69 65 60 54 49 45 43 42
46 46 46 45 45 47 49 50 50 51 51 51 51 52 52 53 53 53 54 55 54 52 53 55 58 60 59 58 59 61 62 66 69 65 61 63 65 69 74 75 74 76 76 77 79 81 83 85 86 87 87 86 84 80 74 68 64 60 53 48 46 45 44
49 49 48 48 47 48 50 51 51 52 52 53 53 54 54 54 55 55 55 56 55 55 57 59 61 62 60 59 60 62 64 67 67 63 62 65 68 72 76 76 76 77 77 78 81 83 85 87 88 89 89 86 84 79 73 67 63 59 53 49 48 47 46
51 51 51 50 49 50 51 52 52 52 53 53 54 55 56 56 57 57 56 56 56 59 61 61 63 63 62 62 62 64 66 67 66 64 66 69 71 74 77 77 77 78 79 80 83 85 87 89 91 92 91 88 85 79 72 67 63 59 54 51 50 48 47
53 54 53 51 51 52 53 54 54 53 53 54 54 55 57 58 58 59 58 58 59 60 62 63 65 64 63 63 63 65 68 67 65 65 68 72 73 75 77 77 77 79 80 81 84 87 88 91 93 94 94 91 87 79 71 66 63 60 56 53 52 50 49
55 55 56 55 52 52 53 55 56 56 55 54 55 56 57 58 59 60 61 61 61 61 62 64 65 64 63 64 65 67 68 65 62 65 71 74 74 76 78 77 77 80 81 82 86 88 90 94 95 94 93 90 84 76 68 64 63 61 58 55 54 53 52
55 55 57 58 56 53 54 55 57 58 58 57 57 57 57 58 59 61 62 63 63 62 62 63 64 63 63 65 65 65 62 60 62 69 74 75 75 78 79 76 77 82 81 83 88 90 91 95 93 91 90 86 78 70 65 63 62 62 60 57 56 56 55
55 55 56 58 59 57 56 56 57 59 59 60 59 59 59 60 60 62 63 63 63 62 63 64 64 63 64 64 62 59 58 62 68 73 75 75 78 80 76 74 79 83 82 85 90 91 93 93 92 91 88 80 71 66 64 63 63 63 62 61 60 59 57
57 57 56 56 58 60 60 59 58 59 61 61 61 62 62 62 63 63 63 63 64 64 64 64 62 61 62 60 59 59 63 69 74 75 75 77 79 77 73 76 81 82 82 87 92 93 94 93 93 92 85 75 68 66 65 64 64 64 64 63 62 62 60
59 59 58 56 55 58 61 61 59 60 61 62 62 63 64 65 65 64 64 65 65 66 66 64 62 60 59 59 61 66 71 75 75 74 75 77 76 74 75 78 81 81 83 89 94 96 97 95 94 90 81 72 70 70 70 68 66 65 64 64 64 64 62
60 60 61 59 56 55 59 62 61 61 62 63 63 64 65 66 66 66 67 67 67 66 65 65 66 64 61 61 66 71 74 75 74 73 75 76 76 76 78 80 81 82 85 90 96 99 98 93 89 84 78 73 73 74 73 70 67 66 65 65 63 61 61
62 62 62 62 59 56 58 61 61 62 63 63 64 65 66 67 67 68 69 68 68 66 64 65 66 64 63 65 68 72 74 74 73 73 74 75 77 77 78 80 81 83 87 93 98 97 93 88 84 82 78 74 72 72 71 70 69 68 65 62 59 59 63
65 64 63 64 63 60 59 61 61 62 63 64 64 66 68 69 69 69 68 68 68 65 61 62 65 65 67 69 71 73 74 73 73 73 74 76 77 77 78 80 82 85 90 95 94 89 85 85 86 84 78 72 68 68 71 72 69 66 62 59 59 63 71
66 63 64 66 65 63 63 62 63 64 65 66 66 66 69 70 69 69 70 70 68 64 61 64 68 71 72 73 74 75 74 74 75 73 74 77 77 76 79 81 84 88 91 91 86 80 80 87 90 85 76 72 71 71 73 73 68 64 64 66 69 74 79
68 65 66 68 66 65 65 65 65 65 66 66 66 66 69 70 69 70 73 74 72 69 67 69 72 73 74 75 77 77 76 75 74 72 74 77 76 77 80 84 87 88 86 82 78 76 80 88 90 81 73 74 76 77 77 75 71 71 74 77 81 85 86
69 67 67 67 67 67 68 68 66 66 66 67 66 67 70 72 72 74 77 77 75 73 71 71 72 72 74 77 79 79 77 75 73 72 75 76 75 77 82 85 83 79 76 76 75 74 77 82 82 78 76 78 81 82 81 79 78 79 81 85 89 91 91
67 67 66 66 67 68 67 66 65 66 67 68 69 71 73 75 76 78 78 76 74 73 72 72 72 73 76 80 80 78 75 73 72 73 76 75 75 79 82 79 72 69 73 79 77 72 73 79 85 88 88 89 89 87 83 81 82 84 87 91 94 94 93
64 66 66 65 65 65 65 65 66 67 69 70 72 74 75 76 77 77 76 75 73 72 73 74 75 77 79 81 79 76 74 73 74 76 77 74 73 74 70 63 59 62 71 76 75 75 81 89 95 97 96 96 92 85 82 84 87 89 92 95 96 94 92
63 65 67 66 65 65 65 65 65 67 71 74 76 77 77 76 76 75 74 73 72 73 74 75 76 80 81 79 76 73 72 74 77 79 76 72 71 70 67 64 64 67 72 75 80 86 91 94 95 95 95 94 87 83 86 90 92 93 95 96 95 93 91
65 64 65 66 67 66 65 65 64 66 72 77 77 77 77 76 75 75 75 75 75 77 78 78 79 81 81 79 74 72 74 77 79 77 74 75 78 82 83 82 81 81 83 85 86 87 88 90 93 95 95 92 88 87 90 92 93 95 96 96 94 92 89
66 65 65 66 67 67 68 66 59 58 66 74 78 78 78 76 76 77 78 79 80 81 81 81 81 80 79 77 74 74 78 80 78 75 77 82 87 91 91 89 88 90 93 94 91 88 87 89 92 93 92 89 87 87 88 90 93 97 98 97 95 92 88
70 69 68 67 68 69 69 65 56 53 58 68 76 79 78 77 79 81 80 82 85 85 82 80 79 78 76 74 74 76 79 79 78 81 87 92 95 96 95 93 93 96 99 99 97 95 92 87 84 84 86 86 85 86 89 92 95 98 98 97 94 90 86
75 73 72 71 70 70 68 63 57 54 55 60 69 73 72 75 80 81 81 84 85 83 79 78 79 77 75 74 76 80 82 84 88 93 98 100 101 100 97 96 97 100 102 102 101 99 95 87 80 78 82 86 88 90 92 94 95 96 97 96 93 88 83
77 76 75 74 72 70 68 64 59 55 53 54 60 65 68 75 81 81 81 83 82 80 80 84 85 84 80 81 84 89 93 95 98 101 102 104 103 100 99 100 103 104 103 103 102 99 93 87 81 80 84 88 90 92 93 94 94 94 93 93 92 87 82
78 78 78 77 75 72 69 64 58 54 50 51 60 70 76 81 83 82 81 82 82 84 89 92 92 90 90 91 95 99 101 102 102 103 104 103 101 100 103 106 107 106 105 105 102 96 90 86 84 85 87 89 91 92 93 93 92 90 90 91 90 86 83
80 81 80 79 77 74 70 65 61 60 57 57 64 74 81 83 82 82 84 85 88 91 94 94 94 95 97 100 102 103 103 103 103 103 102 100 101 104 108 108 108 108 107 105 100 94 90 88 87 88 90 92 93 93 92 92 91 88 87 87 86 84 82
81 81 80 78 77 74 71 69 68 68 67 65 68 75 81 84 85 87 89 90 91 93 95 97 100 102 103 103 103 103 103 103 102 101 101 103 106 108 108 109 109 109 107 102 97 94 91 90 91 92 93 94 94 93 91 91 89 87 84 83 82 81 78
80 79 77 77 76 75 73 72 71 70 71 71 73 77 81 85 88 90 92 93 94 95 98 101 103 103 103 103 104 104 103 102 102 103 105 107 109 109 109 110 110 108 103 98 95 93 92 93 94 95 95 95 94 92 90 89 87 84 82 79 77 74 70
80 79 79 79 79 78 76 74 73 73 73 74 76 78 81 85 89 91 92 94 95 96 98 100 101 101 103 104 105 104 104 105 106 108 108 109 109 110 110 109 107 103 99 96 94 94 95 96 97 96 95 93 90 88 87 85 82 79 77 74 70 67 63

ECMWFFLT1_250_spd_024.txt.gz
Wind_Speed
22 24 26 26 26 25 26 27 27 26 27 28 29 28 29 30 31 31 33 35 36 37 38 38 39 39 40 41 41 41 42 42 44 45 46 48 50 52 53 54 55 55 52 52 55 58 61 63 64 65 65 65 66 68 72 76 78 80 79 78 78 74 66
24 26 28 29 28 28 29 30 30 29 30 31 31 31 31 31 32 33 34 35 37 38 39 40 40 41 42 42 43 43 44 45 46 47 48 49 51 53 55 56 56 55 53 54 57 59 61 63 65 67 66 66 68 70 73 77 80 81 81 81 82 78 67
28 29 31 32 32 31 32 33 33 33 33 33 34 34 34 34 35 36 37 37 38 39 40 41 42 43 44 45 45 45 46 46 47 48 50 51 52 54 56 57 58 56 55 57 60 61 62 64 66 68 68 68 70 72 74 79 82 83 84 84 85 80 67
34 33 34 34 35 35 35 36 36 36 36 36 36 37 37 38 38 38 39 40 41 41 42 43 44 45 45 46 47 47 48 48 48 50 52 53 53 55 57 59 60 58 57 60 62 62 64 65 66 70 71 69 71 74 76 80 84 85 87 88 85 78 65
37 36 37 38 38 38 38 39 39 39 39 39 39 39 40 40 41 41 42 43 44 44 44 45 46 46 47 47 48 48 49 49 50 53 55 56 56 57 59 60 62 60 59 61 64 64 65 66 67 71 72 70 72 76 77 81 85 87 89 89 82 73 62
38 38 39 40 41 41 42 42 41 41 41 41 42 42 42 42 43 43 44 45 46 47 46 47 48 48 49 49 49 49 50 50 52 55 57 57 58 58 60 62 64 63 60 62 65 65 66 68 69 72 72 70 73 76 77 81 86 88 90 85 75 67 59
39 39 39 41 42 42 43 43 43 43 43 43 44 44 44 44 44 45 45 46 47 48 48 49 49 50 51 51 51 51 52 52 54 56 57 58 59 60 61 63 65 63 60 63 65 66 68 69 70 73 72 71 74 76 77 81 87 88 86 80 70 63 57
41 41 41 42 43 43 44 44 44 44 44 45 45 46 46 46 45 46 47 47 48 49 50 50 51 52 52 53 53 54 54 55 56 57 58 59 60 61 62 65 66 62 60 63 65 66 69 70 71 74 72 73 77 78 79 83 87 85 80 77 72 64 58
44 43 42 43 44 46 45 45 45 45 45 46 46 46 47 47 47 47 48 49 50 50 51 52 53 53 54 54 55 56 57 58 59 60 60 60 60 62 63 65 65 61 60 64 66 67 70 70 72 74 74 76 78 79 81 84 85 82 77 77 77 66 59
46 45 44 45 46 48 48 47 47 47 47 47 47 48 48 48 48 49 50 51 51 52 53 54 55 55 55 56 56 57 58 59 60 61 60 60 62 63 63 63 63 61 61 64 66 69 71 70 73 75 75 77 78 79 82 83 83 81 76 78 78 68 61
49 47 46 46 47 49 50 50 49 49 49 49 49 49 50 50 51 51 52 53 54 54 55 56 56 56 57 57 57 58 59 60 61 61 61 62 63 63 63 63 63 61 62 65 67 70 71 70 72 75 75 76 78 80 81 81 81 80 78 80 77 68 62
50 48 47 48 49 50 52 53 51 51 51 50 50 51 51 52 53 53 54 55 55 56 56 57 58 58 59 59 59 60 60 60 61 62 63 64 65 64 64 64 62 61 62 66 69 71 71 70 72 74 73 74 78 79 77 79 82 81 81 84 78 69 67
51 50 50 50 49 50 52 54 54 53 52 52 52 52 53 53 53 54 55 56 57 57 58 59 60 60 61 61 62 62 62 62 63 64 65 66 65 65 66 64 61 61 64 67 70 72 72 71 72 73 72 73 76 75 74 78 82 81 84 86 82 77 74
53 52 52 51 49 48 50 53 54 54 53 53 53 53 54 54 54 55 55 56 58 58 59 60 62 63 63 63 63 64 63 64 65 66 66 66 65 66 66 63 61 62 65 68 71 73 73 74 74 72 71 72 72 70 73 79 81 82 85 87 86 84 81
56 56 54 52 49 49 50 52 53 54 54 53 53 53 54 54 55 55 56 57 58 60 61 62 63 64 65 65 64 65 65 65 67 67 65 63 64 65 64 62 62 64 67 70 73 75 75 75 74 71 71 71 68 69 75 79 81 85 88 89 91 91 90
58 58 56 53 50 51 53 53 53 53 54 54 53 53 54 55 55 55 56 57 59 61 62 63 64 65 66 66 65 66 67 66 65 62 59 60 63 64 62 62 64 67 70 73 75 77 77 76 73 71 72 70 67 70 76 78 81 87 88 90 94 96 96
59 59 57 54 52 54 57 56 54 54 54 55 55 54 54 55 55 56 56 58 59 61 62 63 64 65 66 66 67 67 66 64 60 56 56 61 63 61 61 63 67 70 73 74 76 79 79 76 72 72 73 71 69 72 75 76 82 89 89 89 93 97 98
62 60 59 56 55 57 59 58 57 57 57 57 56 57 57 57 57 57 57 57 59 61 62 63 64 65 67 67 67 66 64 61 58 56 58 62 62 61 64 68 70 72 73 74 78 80 79 76 72 72 73 72 72 73 74 79 86 90 89 89 93 98 99
66 64 61 59 58 59 60 60 60 59 58 59 59 59 60 60 59 58 58 60 61 62 63 64 65 66 67 67 67 66 62 59 59 59 61 63 64 66 69 71 71 70 71 75 78 78 76 74 72 72 73 74 74 75 77 84 89 89 88 90 95 99 100
68 66 64 62 60 59 60 61 61 61 61 60 60 60 60 60 60 60 61 63 63 64 65 65 65 66 67 68 68 63 60 61 61 59 62 68 71 71 70 69 69 69 71 76 77 75 73 71 71 72 73 75 77 78 80 85 89 90 90 93 98 102 102
71 69 67 64 62 61 61 61 63 63 62 61 61 61 61 61 62 63 64 65 66 67 67 65 66 67 66 64 60 54 55 60 59 60 68 73 73 71 69 69 69 70 72 76 77 75 73 71 71 70 70 74 79 81 82 86 90 92 93 97 102 104 103
72 70 68 68 67 66 64 63 64 64 63 63 62 62 62 62 63 64 65 66 67 67 66 65 65 62 55 52 51 51 53 57 60 66 73 73 70 69 70 70 70 72 75 77 78 77 74 72 71 69 70 77 82 82 85 90 93 94 96 100 104 104 103
71 70 70 71 72 70 67 66 66 65 64 63 61 61 61 62 64 66 67 68 69 69 69 66 62 56 51 51 55 57 56 59 67 74 74 71 70 71 71 71 72 75 76 76 77 78 75 73 71 72 75 80 83 84 90 94 97 98 101 104 105 105 103
72 71 71 73 74 72 69 68 67 65 63 61 61 61 61 62 65 66 66 67 65 63 61 57 55 55 54 56 60 63 64 68 73 75 74 73 73 72 72 74 76 78 77 76 77 78 77 74 74 76 79 83 87 92 95 98 100 103 105 107 107 106 104
74 73 72 72 73 73 71 69 68 65 63 62 62 61 60 61 63 62 61 61 59 55 51 51 54 57 58 61 67 70 72 73 74 75 77 76 74 73 75 76 76 77 76 76 78 80 80 79 78 79 82 88 95 99 100 101 104 106 107 108 108 106 104
75 73 73 73 73 73 71 70 68 66 65 63 61 60 58 56 54 56 58 60 62 62 58 57 60 58 58 66 75 77 76 74 74 76 77 75 74 75 75 75 74 73 74 76 79 81 81 81 82 85 89 96 100 101 102 104 106 108 110 110 108 107 104
73 72 72 72 72 71 69 68 67 66 64 61 59 59 56 48 45 51 55 56 60 64 62 61 61 61 66 78 83 79 75 72 72 74 74 74 76 76 75 75 74 74 74 76 78 80 82 85 88 92 97 101 103 102 102 103 107 110 111 109 109 107 102
71 70 69 69 70 70 69 67 66 63 61 60 61 61 58 51 48 51 51 49 52 60 64 67 69 72 80 87 82 73 70 69 71 73 74 77 81 82 80 79 77 75 75 77 80 84 88 91 93 96 100 103 104 103 102 103 106 109 109 108 107 104 98
69 69 69 69 69 69 68 66 64 61 61 63 64 63 60 56 53 54 51 46 49 60 67 70 75 81 85 83 75 68 67 69 70 74 78 84 88 88 86 83 81 81 81 84 87 91 92 93 95 98 102 104 104 104 103 104 106 107 107 107 104 99 94
70 71 70 69 67 66 66 65 64 65 65 66 65 64 62 58 55 56 53 46 50 62 69 72 77 82 79 73 67 65 66 69 74 80 85 91 93 91 89 87 87 88 90 93 95 96 96 97 99 101 103 104 104 104 105 105 106 106 106 104 100 94 90
71 71 69 66 64 64 65 66 68 68 67 67 67 66 66 62 57 57 55 50 53 64 71 75 77 74 67 62 62 63 67 73 81 88 93 96 95 94 92 92 93 96 98 100 101 101 101 102 102 103 104 104 105 106 106 106 107 106 104 100 95 90 89
68 68 66 64 63 64 66 67 69 69 69 70 70 70 69 67 61 58 55 52 56 66 71 71 70 65 61 61 63 68 75 83 91 97 99 97 96 96 98 99 100 103 104 105 105 104 104 104 104 104 105 105 106 107 107 107 107 104 99 94 90 89 91
69 69 66 65 65 67 67 67 68 70 71 72 73 72 73 71 66 61 56 53 58 69 73 72 71 70 70 72 75 83 91 96 101 103 102 101 101 103 103 104 104 105 105 105 104 104 104 105 106 107 107 107 108 108 109 107 103 97 92 91 91 93 96
70 69 67 67 68 69 69 70 71 72 73 74 74 74 73 72 69 65 61 58 62 70 76 79 81 81 83 86 92 98 102 104 106 107 107 106 106 106 105 104 103 104 104 104 105 106 107 108 108 108 109 110 110 109 106 100 94 91 91 94 95 96 96
70 69 69 69 71 72 73 74 74 74 75 75 75 74 72 72 71 69 67 65 66 70 76 81 85 88 92 96 100 103 105 106 107 107 107 107 106 106 105 104 104 104 104 105 106 107 108 109 109 110 110 109 105 101 96 92 91 93 97 98 97 94 92
71 72 72 73 75 76 77 78 78 79 78 77 76 75 75 75 73 71 69 68 69 71 75 80 84 88 93 97 100 102 103 104 104 104 105 105 105 104 104 104 104 104 104 105 107 108 109 110 110 107 102 97 94 92 92 94 97 99 100 98 95 91 88
74 75 76 78 79 81 82 82 81 80 79 77 77 77 76 74 72 70 70 70 71 73 77 81 84 87 91 94 97 98 100 101 101 101 101 102 103 103 103 103 103 103 105 106 107 107 106 105 101 95 91 91 94 96 97 99 101 100 98 95 91 88 85
78 79 80 82 84 85 84 83 81 79 78 78 77 76 75 74 73 72 71 72 73 76 80 84 86 88 91 93 94 96 97 97 98 98 100 102 102 102 102 102 102 103 104 103 100 98 97 94 90 89 92 97 100 100 100 101 101 98 95 92 89 85 80

ECMWFFLT1_250_spd_030.txt.gz
Wind_Speed
27 26 27 26 26 27 27 28 28 29 30 31 31 32 33 33 34 35 35 35 36 37 37 37 37 37 37 37 38 39 40 41 41 41 42 42 43 44 43 44 44 45 45 46 47 48 49 50 51 52 52 52 51 51 52 48 44 45 47 48 50 52 51
31 30 29 29 29 29 29 30 31 32 33 34 35 35 35 36 36 37 37 37 38 38 39 39 39 39 39 40 41 42 43 43 43 44 44 45 46 45 44 45 45 44 45 47 48 49 50 51 52 53 53 53 52 52 52 48 44 46 48 50 52 53 52
34 33 33 32 32 31 31 32 32 34 35 36 37 37 38 37 37 38 39 39 40 40 41 41 41 42 42 43 44 45 46 46 46 46 46 47 46 44 45 47 45 44 46 48 49 50 51 52 53 54 54 54 53 54 53 48 45 47 50 52 55 54 52
37 36 36 35 35 34 34 34 34 35 36 37 38 39 39 40 40 40 41 41 42 42 42 43 44 45 45 46 47 47 48 48 48 48 48 48 47 46 49 48 44 45 49 50 50 51 52 54 54 55 55 54 55 55 52 48 46 47 51 55 56 55 53
39 39 39 39 39 38 38 37 37 37 38 39 40 41 41 42 42 43 44 44 44 43 44 45 46 47 48 48 49 49 49 50 49 49 50 50 48 48 50 49 47 49 52 52 52 53 55 55 56 56 55 55 56 54 51 49 47 48 52 56 58 56 54
42 42 42 43 43 42 42 41 41 42 42 42 43 43 43 43 44 45 46 46 45 45 45 46 47 49 49 49 49 49 49 50 51 52 52 50 49 50 53 53 51 53 55 54 54 56 56 56 57 58 57 57 55 51 49 49 48 48 53 57 58 57 56
45 45 45 45 46 46 46 45 45 45 45 45 45 45 44 45 46 46 47 47 47 47 47 48 49 49 49 49 49 49 50 51 52 53 53 51 51 53 55 55 54 56 57 56 56 57 57 57 59 60 58 55 50 48 48 49 48 50 54 59 59 58 59
47 47 47 48 48 49 48 48 48 48 48 47 46 46 46 46 47 47 47 48 48 49 49 49 49 49 49 49 48 49 50 51 52 53 53 53 54 55 56 56 56 57 58 58 57 56 55 56 59 59 55 51 47 46 48 48 48 50 55 59 59 60 61
49 49 49 50 50 50 50 50 51 50 49 48 47 47 47 48 48 48 48 48 48 49 49 49 50 49 49 49 49 49 50 52 53 55 55 56 56 56 57 57 57 59 60 58 55 52 52 55 59 58 53 49 48 48 48 49 49 51 55 58 59 61 62
50 50 50 51 52 51 51 52 52 51 50 49 48 48 48 49 49 49 48 48 48 48 48 49 50 50 50 50 50 51 52 54 55 57 58 57 57 58 59 59 60 61 59 55 52 50 49 55 61 60 54 51 50 49 50 51 52 54 57 60 62 63 63
50 50 51 52 53 52 53 53 53 52 52 51 50 50 50 50 50 50 49 49 48 48 49 49 50 51 52 52 52 53 55 56 58 59 58 57 57 57 57 56 58 58 56 54 53 50 51 58 62 59 55 53 52 51 51 53 55 57 60 63 65 66 66
51 51 52 53 54 53 53 54 54 55 54 54 53 52 52 52 52 51 51 50 50 49 50 50 51 52 53 54 55 55 56 60 62 60 56 55 55 52 51 52 54 55 56 57 56 52 55 62 63 59 57 54 51 51 53 54 57 60 63 65 67 67 68
51 52 53 54 55 55 55 56 56 56 57 56 54 54 54 54 54 53 53 52 52 52 52 52 52 53 54 54 54 55 58 61 58 52 49 51 51 48 49 51 52 55 57 58 57 57 61 65 62 59 58 55 52 53 54 55 59 64 66 67 68 69 71
53 53 54 55 57 57 58 58 58 58 58 57 56 56 56 56 56 55 55 55 54 54 54 54 54 55 55 54 54 55 56 53 48 46 50 51 51 50 52 55 55 56 58 57 59 63 66 65 61 57 57 56 56 57 57 58 63 68 69 69 69 71 73
55 55 55 57 59 60 61 62 61 60 60 58 57 58 58 58 58 58 58 58 57 57 57 56 56 55 54 54 53 52 49 45 46 52 56 56 55 55 57 60 58 56 57 58 62 65 65 63 61 60 59 58 59 60 60 62 66 70 71 69 71 74 77
57 57 57 59 61 62 64 65 64 63 62 60 60 60 60 61 61 61 61 61 60 60 59 58 58 56 54 52 47 43 45 47 50 54 57 58 58 58 60 61 58 56 58 60 61 61 60 60 60 60 60 62 63 63 62 64 68 72 72 72 75 78 80
59 59 60 61 63 64 66 68 67 66 65 63 62 62 62 63 63 64 64 63 63 62 61 60 59 56 54 51 43 40 44 49 53 55 56 59 61 60 60 59 57 58 59 57 55 57 59 61 61 59 60 63 64 63 63 65 70 73 74 76 79 81 81
60 61 62 64 65 67 69 69 69 68 67 67 66 65 64 65 65 66 66 66 65 64 62 60 58 55 55 52 47 42 41 47 53 55 56 59 59 57 57 56 56 56 55 53 54 57 60 62 63 62 62 62 61 61 64 68 72 75 77 79 81 82 82
62 64 65 66 68 69 71 71 71 70 70 69 69 68 67 68 68 68 68 67 66 64 61 59 57 55 55 53 49 43 39 42 47 49 52 53 52 54 57 58 56 55 53 52 53 56 59 64 66 65 64 63 63 64 68 72 75 77 79 81 82 82 82
65 66 68 69 70 71 72 73 72 72 72 72 71 69 69 69 69 68 67 66 64 62 61 59 56 55 54 52 48 43 40 43 49 51 52 52 53 57 60 59 58 56 53 53 55 59 65 68 70 69 67 67 67 69 72 75 77 79 80 81 82 82 83
68 69 70 70 71 73 74 74 74 74 74 73 71 70 69 68 68 67 65 64 63 62 61 60 58 56 55 53 49 43 41 46 52 55 58 59 61 62 61 61 63 60 56 56 59 64 68 70 71 70 70 69 70 73 77 79 79 79 80 81 83 84 85
70 70 71 71 72 73 73 72 73 73 73 73 71 70 68 66 65 65 64 63 63 62 62 61 60 59 58 56 52 47 44 47 52 55 58 62 65 66 67 67 66 63 60 60 62 64 66 68 69 71 71 72 74 77 79 80 79 80 81 84 85 86 86
70 71 71 72 72 71 70 69 69 71 72 72 72 70 69 67 65 64 63 64 63 63 63 63 62 62 61 59 56 52 47 49 54 56 57 61 66 68 67 63 61 62 62 62 63 65 67 69 72 74 75 76 78 79 79 80 81 82 84 85 86 86 87
69 70 71 70 69 68 67 66 67 69 71 72 72 71 70 67 66 65 65 65 65 65 65 65 64 63 63 62 60 56 51 50 54 57 58 59 59 60 60 59 59 60 61 63 66 69 72 73 76 77 79 80 80 80 80 81 83 84 84 85 87 88 90
69 69 69 67 66 66 66 67 67 69 70 71 71 71 69 68 68 67 67 67 67 67 67 67 66 64 64 63 62 60 56 53 55 59 60 61 62 61 61 62 62 63 66 69 72 74 75 77 79 82 84 84 83 82 82 82 83 84 85 87 90 93 93
67 67 66 65 65 66 67 67 68 69 70 70 70 70 70 70 69 68 69 69 69 69 69 69 67 66 64 64 62 61 61 61 61 61 62 66 68 63 55 56 62 68 72 73 74 76 79 81 83 85 85 84 82 81 81 82 83 86 89 92 94 93 92
66 66 65 65 65 67 68 69 70 70 70 70 71 71 71 71 71 71 71 71 71 71 70 69 68 67 65 64 63 63 63 63 64 64 63 64 67 65 61 64 70 74 75 74 75 77 80 81 81 81 80 79 79 80 82 84 86 90 92 93 92 90 89
66 66 66 66 67 68 69 70 72 72 72 72 73 73 73 73 73 72 72 72 72 71 70 69 68 67 66 65 64 63 63 62 64 65 62 59 62 66 69 71 73 73 72 73 74 75 76 76 77 77 77 79 81 83 85 87 89 90 91 90 89 89 89
68 68 68 69 70 70 71 72 74 74 75 75 75 75 74 74 73 73 73 73 72 70 70 69 68 66 65 64 63 63 63 64 64 64 61 59 61 65 67 68 70 70 70 72 73 75 76 77 78 80 81 82 83 84 85 86 87 87 87 87 89 90 92
70 70 70 71 71 72 73 74 75 75 77 77 77 77 76 75 75 74 74 73 72 71 71 68 66 64 63 63 64 63 63 62 61 61 61 62 64 65 66 68 70 71 72 75 77 79 82 83 84 83 82 81 82 83 84 85 85 85 86 88 91 93 96
73 72 72 72 73 74 75 75 76 77 78 78 78 78 78 77 76 75 74 74 73 72 70 67 65 64 64 64 63 62 61 60 61 62 64 65 66 67 68 70 72 74 77 79 82 85 88 88 84 79 78 80 82 83 84 84 85 86 89 91 94 96 99
74 74 74 74 74 75 76 77 77 78 79 79 79 80 79 78 77 78 77 75 73 70 68 67 66 66 66 65 63 62 62 63 64 65 66 67 68 69 71 73 74 77 80 83 85 87 86 81 76 76 81 84 84 85 86 87 88 90 92 94 96 99 103
76 75 75 75 76 76 77 78 79 79 79 79 80 80 79 79 79 79 78 76 74 71 70 69 69 69 68 66 64 64 64 65 66 68 69 70 71 73 75 76 78 80 83 84 84 84 81 78 79 84 88 88 87 87 89 90 92 93 94 96 100 103 105
77 76 76 76 76 77 77 77 77 77 77 78 78 79 79 79 79 78 77 76 75 74 72 71 70 69 67 66 66 66 67 69 70 70 71 73 75 77 77 79 80 82 84 85 84 83 82 83 86 91 91 90 89 90 91 93 94 95 98 101 104 103 98
76 75 75 75 75 76 76 76 76 77 77 78 78 78 78 78 77 75 75 74 74 73 72 72 71 70 68 68 67 68 69 71 72 74 76 78 78 78 79 81 85 88 90 91 90 87 87 89 92 93 93 91 91 91 92 95 97 100 103 103 100 95 90
75 75 75 76 76 77 77 78 77 77 77 77 76 76 76 75 75 75 74 73 72 71 71 72 72 72 71 69 68 70 73 75 75 76 76 75 75 77 81 86 90 93 94 93 92 91 91 93 94 94 93 92 92 93 95 99 102 103 101 96 91 88 88
76 75 75 76 77 76 76 76 76 74 74 73 72 73 74 75 75 75 74 74 74 75 75 75 74 73 72 72 73 74 73 71 69 68 68 71 74 79 84 88 93 96 95 93 92 93 93 94 94 93 93 93 94 96 99 100 99 96 92 89 88 89 90
75 74 74 75 75 75 74 74 73 73 72 71 71 73 75 75 76 76 75 76 77 78 79 78 77 76 73 71 71 71 69 67 67 70 74 79 83 86 89 93 97 99 98 96 94 93 92 92 92 92 93 94 96 98 97 94 91 89 89 89 90 90 91

ECMWFFLT1_250_spd_033.txt.gz
Wind_Speed
22 23 24 25 25 25 26 26 27 28 28 29 29 30 30 30 31 31 32 32 33 34 34 34 35 35 36 37 38 39 39 39 39 39 39 40 40 40 41 41 42 42 42 42 44 46 45 45 44 44 45 47 45 42 41 42 42 40 37 36 37 39 39
24 25 26 27 28 28 28 29 29 30 30 31 31 31 32 33 33 33 34 35 35 36 37 37 37 37 38 39 39 39 39 39 40 39 39 40 40 41 41 42 42 43 43 44 45 47 47 47 46 45 46 45 39 37 40 41 40 38 37 38 39 40 40
28 28 28 29 30 31 31 31 31 32 32 33 33 34 34 35 35 36 37 37 38 38 39 39 38 39 39 40 40 40 39 40 40 40 40 41 41 42 42 42 43 44 44 45 47 48 48 47 45 44 43 39 33 34 39 40 39 39 39 41 42 41 42
32 32 31 32 32 33 33 33 33 34 35 36 36 36 36 37 37 38 39 40 40 40 40 40 40 40 40 40 40 40 40 40 41 41 41 42 43 43 44 44 45 46 47 48 48 45 43 43 41 39 38 37 34 35 39 41 42 42 41 42 43 43 43
35 35 34 35 35 35 35 35 35 35 37 38 39 39 39 39 39 40 40 41 41 41 41 41 40 40 40 40 41 41 41 42 42 42 43 44 45 46 46 46 47 48 48 45 40 38 40 42 41 39 40 42 40 38 40 42 42 42 43 44 44 44 44
38 38 37 38 38 37 37 36 36 37 38 40 41 42 42 42 42 42 42 42 42 42 41 41 40 40 41 41 41 42 42 43 44 44 45 46 47 48 48 48 48 46 41 37 35 37 42 42 41 42 44 45 45 43 43 43 43 43 45 45 44 44 45
41 40 40 40 40 39 39 38 38 39 40 41 42 43 44 44 43 43 43 43 43 42 41 41 41 41 41 42 42 43 44 45 46 47 48 49 51 51 50 47 42 37 35 35 37 39 40 39 41 45 48 49 49 46 45 47 48 48 48 45 44 44 45
44 43 43 43 43 42 42 41 41 41 42 43 44 45 45 45 44 44 44 43 43 42 42 42 42 42 42 43 43 44 45 47 48 50 52 53 52 49 44 40 37 35 37 38 38 39 39 40 43 49 52 53 50 47 48 51 52 52 50 47 45 45 46
47 46 46 46 46 46 46 45 44 44 44 45 46 46 46 46 45 44 44 44 43 43 43 43 43 43 43 44 44 45 47 48 50 52 53 52 47 41 36 35 36 38 40 41 42 42 43 45 48 53 55 53 50 49 51 52 53 53 52 49 47 47 48
50 49 49 49 49 50 49 48 47 46 46 47 48 48 47 47 45 45 45 45 44 44 44 45 45 44 44 45 46 46 46 46 49 51 48 43 41 39 37 38 41 45 46 48 49 49 48 49 51 54 56 54 52 51 51 51 53 53 52 49 48 49 50
53 52 52 52 52 52 52 50 50 49 49 49 50 49 49 47 46 46 46 46 46 46 46 46 46 46 46 46 47 47 45 44 47 48 46 45 47 49 49 49 50 49 48 49 50 50 50 49 50 52 53 53 52 49 48 51 53 52 51 50 50 51 51
54 54 54 54 54 54 53 53 52 52 52 52 52 51 49 48 47 47 47 47 48 48 48 48 48 47 47 47 48 49 47 46 47 49 51 54 57 57 56 55 53 50 48 49 50 50 50 49 49 50 50 48 48 45 46 51 53 52 53 54 54 55 55
53 54 54 55 55 55 55 55 54 55 55 55 54 53 51 50 49 49 49 49 49 49 49 49 49 49 49 49 50 52 51 50 50 53 56 57 57 56 56 54 52 51 52 52 52 52 51 49 49 49 47 45 44 46 49 53 55 56 58 59 59 59 58
54 54 55 56 56 57 57 57 57 57 57 57 56 54 53 53 52 52 52 52 51 51 51 51 51 51 51 51 53 54 54 52 52 55 58 58 57 56 56 53 50 51 53 53 54 54 53 53 53 52 50 48 50 54 57 58 60 62 63 62 61 61 61
55 55 56 57 57 58 58 58 59 60 60 58 57 56 56 56 55 55 55 54 54 54 54 54 54 54 54 53 53 54 53 51 48 49 52 54 53 52 52 50 48 48 50 51 53 54 55 55 56 57 58 59 60 62 63 62 63 65 64 63 62 63 64
57 57 59 59 59 59 60 60 61 62 61 60 59 59 58 58 58 58 58 57 56 56 57 57 57 56 55 54 54 53 52 48 43 43 48 51 51 52 54 55 53 52 53 54 57 58 59 60 62 64 65 64 63 64 64 64 64 64 64 63 64 65 67
59 60 61 61 61 61 61 62 63 63 62 62 62 62 61 61 61 61 60 59 59 59 60 60 60 59 57 56 55 54 51 47 43 44 50 54 56 58 60 62 61 61 62 63 64 64 64 65 67 69 69 66 66 67 67 66 66 65 65 65 66 67 69
61 63 63 63 62 61 62 64 65 65 64 64 65 65 65 65 65 64 62 61 61 62 62 62 62 61 58 57 56 54 52 50 48 48 51 54 56 58 60 61 61 62 64 65 66 67 67 68 69 70 70 69 69 69 69 68 67 67 66 66 67 69 71
64 65 66 64 63 63 64 66 67 66 66 66 67 67 69 69 69 67 65 64 63 63 63 63 62 61 59 57 56 54 52 52 51 50 51 53 55 56 57 59 60 61 63 65 66 68 70 71 72 72 72 72 70 69 68 67 66 65 66 67 68 70 72
66 68 68 67 66 65 66 67 67 67 67 68 68 70 71 71 71 70 68 66 65 63 62 62 62 61 59 57 55 53 53 53 54 53 53 54 56 56 56 58 59 61 64 66 68 69 70 70 71 71 71 70 68 67 67 66 65 65 67 69 71 73 74
69 69 69 69 69 68 68 68 68 68 69 70 70 71 72 73 72 72 71 68 65 63 61 61 61 60 59 57 56 55 55 56 57 57 56 56 58 59 59 60 62 63 66 68 70 70 70 70 70 70 69 69 69 69 71 71 70 69 70 73 75 77 77
71 71 71 71 71 70 69 69 70 70 70 71 72 73 73 73 73 73 72 69 66 63 62 61 60 59 58 58 58 58 58 60 60 60 60 60 60 60 60 61 62 64 66 68 70 72 73 72 71 71 70 72 74 76 77 78 76 74 75 77 79 78 77
74 73 73 74 73 71 70 71 71 71 71 72 73 73 73 73 73 73 72 70 68 65 63 61 60 59 59 60 60 61 61 62 63 62 63 63 62 62 62 62 63 64 65 66 68 70 72 73 73 73 73 74 77 80 82 82 80 79 80 81 81 79 77
75 75 75 74 73 72 72 72 72 72 72 73 73 73 73 72 72 71 70 70 68 66 64 62 61 61 61 62 63 63 64 65 66 66 67 66 65 66 65 64 65 66 65 66 68 70 71 72 74 75 76 76 77 78 79 80 81 81 82 82 80 77 76
75 75 75 75 73 72 72 72 72 72 72 72 72 72 72 71 70 69 69 69 68 66 65 64 64 64 64 65 65 66 67 68 68 69 70 69 68 67 67 67 68 69 68 68 70 72 74 74 75 75 76 75 74 74 74 76 79 80 79 78 76 76 76
76 76 75 74 73 72 73 73 73 72 71 71 71 71 71 70 68 68 68 68 67 67 66 66 66 67 67 68 68 68 68 69 70 70 70 70 70 69 69 68 67 67 68 69 71 74 76 76 74 71 69 69 70 71 72 73 74 74 73 74 76 77 77
77 76 75 74 73 72 73 73 72 70 70 70 70 70 69 68 67 67 67 68 68 68 68 68 69 69 70 71 71 70 70 70 71 71 70 70 70 69 68 66 64 63 66 68 70 72 73 72 69 65 66 69 71 72 72 71 70 72 75 77 78 79 80
76 75 74 73 72 72 72 71 70 69 69 69 68 68 68 67 68 68 69 70 70 70 70 71 71 72 73 73 72 72 72 71 71 71 70 69 69 67 65 64 63 63 65 66 68 68 67 65 65 66 70 73 74 73 72 71 73 76 79 80 82 84 86
75 74 73 72 71 71 70 70 69 69 68 68 67 68 68 68 69 70 71 71 72 72 73 74 74 74 74 74 74 74 73 72 71 70 70 69 67 64 62 62 63 63 63 64 63 61 59 61 66 71 75 76 75 74 73 75 78 80 81 84 87 89 90
73 72 72 71 71 71 70 69 68 68 68 68 68 68 69 69 71 73 73 74 74 75 75 76 76 75 75 75 75 74 73 73 72 71 70 67 64 63 63 64 64 62 58 56 54 53 57 64 71 75 76 75 75 75 77 79 82 83 85 88 91 93 94
72 71 72 71 71 71 71 70 70 70 70 70 70 71 72 73 74 75 75 75 76 76 77 77 77 76 76 75 75 74 74 74 73 71 69 66 65 65 61 56 55 53 50 50 52 59 67 73 73 73 74 76 78 80 82 84 86 87 90 93 95 97 96
72 72 71 71 71 72 73 73 73 73 73 73 73 73 74 74 75 75 76 77 77 78 78 78 77 77 76 75 74 74 75 75 73 72 71 69 68 65 54 45 48 54 55 57 63 70 74 73 71 72 76 80 84 86 87 88 90 93 95 97 98 98 95
72 72 72 72 74 75 75 75 75 75 75 75 75 74 75 75 75 75 77 78 78 79 79 78 78 77 76 75 76 75 75 74 72 71 70 69 68 66 60 55 58 62 64 66 68 70 70 70 73 77 80 83 86 88 89 91 94 96 99 100 99 96 93
73 74 74 74 76 77 76 76 75 76 75 75 75 75 75 75 75 76 77 78 78 77 78 78 77 77 77 76 76 76 75 73 71 70 70 70 69 69 67 64 63 64 65 66 65 66 69 74 78 80 81 82 85 87 91 94 97 99 100 98 95 92 91
74 75 75 76 76 76 76 75 75 76 76 75 75 75 75 75 77 77 78 77 77 77 77 77 77 77 77 77 77 76 74 72 71 70 69 69 68 67 65 63 64 64 64 64 67 71 76 79 80 80 81 83 86 90 95 98 100 99 97 94 91 91 91
76 76 76 76 75 75 75 75 75 75 76 76 76 76 76 77 78 78 78 77 77 77 78 77 77 77 77 76 75 74 72 71 71 68 65 64 65 63 61 60 60 63 66 70 75 78 79 80 81 82 84 88 92 96 98 99 98 95 92 91 91 91 90
77 77 76 75 75 75 75 75 75 75 76 77 77 77 78 78 78 77 77 77 78 78 78 78 78 77 75 74 74 73 72 71 65 58 56 59 61 59 58 60 63 68 74 78 79 79 80 82 85 87 91 94 97 98 99 97 93 91 90 90 90 89 86
78 77 77 76 76 77 77 77 77 78 78 79 79 79 79 78 77 77 78 78 78 78 78 78 77 76 75 74 71 67 64 61 55 50 52 59 64 66 68 72 76 79 81 82 82 84 86 88 91 94 96 97 97 98 97 94 91 90 90 88 87 85 85

ECMWFFLT1_250_spd_036.txt.gz
Wind_Speed
22 21 21 22 21 20 20 21 21 21 22 22 23 24 24 24 25 26 27 27 28 29 30 31 32 32 33 33 32 32 32 32 32 33 34 34 35 35 36 36 38 39 40 41 42 42 43 40 32 27 28 31 32 31 30 32 34 37 40 42 43 41 38
25 24 25 24 23 24 23 23 23 23 24 25 25 26 26 27 28 28 29 30 30 31 32 33 34 34 34 34 34 33 33 33 33 34 35 36 36 36 37 38 40 41 43 44 44 44 41 35 28 28 31 32 32 32 32 35 38 40 42 43 43 43 41
27 26 27 27 26 26 26 26 26 26 27 27 28 29 29 30 31 31 31 32 32 33 33 34 35 36 36 35 35 34 34 34 34 35 37 37 38 38 39 40 42 44 45 43 42 39 34 30 29 32 33 32 33 34 36 39 42 43 44 44 44 44 44
30 29 29 30 29 28 28 28 28 28 29 30 30 31 32 32 33 33 33 33 34 35 35 36 37 37 37 36 36 35 35 36 36 37 38 39 40 41 41 42 43 45 45 40 35 31 29 31 35 37 37 37 37 38 39 41 43 45 45 45 46 46 47
33 32 31 31 31 30 30 30 30 30 32 32 33 34 34 34 35 35 35 35 36 36 37 38 38 38 38 37 37 37 37 38 38 39 40 41 42 42 42 42 44 47 44 36 30 30 34 39 42 42 42 42 42 43 43 42 44 46 46 45 47 48 49
36 35 34 33 33 32 32 32 32 33 34 35 36 36 36 36 36 36 36 37 37 38 39 39 39 39 39 39 38 38 39 40 41 41 42 42 43 43 43 44 46 47 44 37 36 40 45 46 46 45 43 43 45 45 45 43 45 47 46 45 46 48 50
39 38 37 36 36 35 35 35 35 36 37 38 39 39 38 38 38 38 38 38 39 40 40 41 41 41 40 40 40 40 42 43 43 43 43 44 44 44 45 45 44 44 44 43 45 49 51 50 48 47 44 43 45 46 46 47 47 48 46 45 45 47 51
42 41 40 39 38 38 38 38 38 38 39 40 41 41 41 40 40 40 40 40 41 41 41 42 42 42 41 41 42 43 45 45 45 45 45 46 45 45 46 46 44 44 46 48 50 52 52 51 49 48 45 45 46 48 49 49 49 47 46 46 47 50 54
44 43 43 41 40 40 40 40 40 40 41 42 42 42 42 42 42 42 42 43 43 43 43 43 43 43 42 43 44 47 48 47 46 46 47 49 48 47 48 49 49 48 48 49 50 50 50 49 48 48 47 47 48 50 51 50 49 47 47 49 49 51 55
46 46 45 44 43 43 43 43 42 42 43 43 43 43 44 44 44 44 45 45 45 45 45 45 45 44 44 45 47 49 50 49 48 48 49 50 50 51 51 50 49 48 48 49 49 48 49 47 45 46 47 48 50 51 51 51 50 48 49 51 50 52 57
49 48 47 46 45 46 46 45 45 44 44 44 44 45 46 46 46 46 47 47 47 47 47 47 47 46 47 49 50 51 52 52 51 51 52 53 54 54 51 47 47 49 51 51 50 49 49 46 45 46 48 49 50 50 51 51 51 52 53 53 52 55 60
52 50 48 48 48 48 48 48 47 46 46 46 47 48 48 48 48 48 49 49 49 49 49 49 49 49 50 52 53 53 53 54 54 54 56 57 57 55 51 49 51 54 54 54 53 53 54 53 53 54 54 54 53 53 54 54 56 57 55 52 53 59 62
55 53 51 50 50 50 50 50 49 48 49 49 50 50 51 50 50 51 51 51 51 51 51 51 51 51 52 54 55 55 55 55 55 57 60 60 59 58 55 53 55 55 54 54 54 55 57 58 59 60 60 59 59 58 58 59 59 59 57 56 59 63 64
56 55 54 53 53 53 53 52 51 51 51 52 52 53 52 52 52 52 53 53 53 53 53 53 54 54 55 56 57 57 57 56 56 58 61 63 62 61 58 56 55 55 54 53 53 53 55 57 58 59 59 59 59 59 59 59 60 60 60 62 64 64 64
57 56 55 55 56 55 55 54 53 53 54 54 54 54 53 54 54 54 54 55 55 55 55 56 56 56 57 57 58 58 58 58 58 58 60 62 63 61 59 57 55 55 55 54 54 55 56 57 58 59 59 59 59 60 60 61 62 62 63 64 63 62 62
58 57 57 57 57 57 57 56 54 55 56 56 56 55 55 55 56 56 57 57 57 57 57 58 58 58 59 59 59 59 59 59 60 59 58 60 61 60 58 56 54 54 54 55 56 58 59 60 61 61 61 60 61 62 63 64 65 65 65 63 61 60 60
60 59 59 59 59 58 58 57 56 57 58 58 57 57 57 58 58 58 59 60 60 60 60 60 60 60 60 60 61 61 61 60 60 59 57 57 58 59 57 56 55 55 54 55 57 59 60 62 63 61 59 60 62 64 65 66 67 67 65 63 61 61 62
63 61 61 61 60 60 60 59 58 59 60 60 59 58 59 60 61 61 62 62 62 62 62 62 62 62 62 62 62 62 62 61 60 59 57 56 56 57 57 56 56 56 56 58 59 60 62 64 64 62 61 63 65 66 67 68 68 68 67 65 63 63 64
66 64 63 63 62 62 63 61 60 60 61 61 60 60 61 63 64 65 65 64 65 65 64 64 63 63 64 64 64 63 63 62 60 58 57 55 55 56 56 56 56 57 58 59 60 63 64 65 66 65 65 66 67 68 69 70 69 69 67 66 64 64 65
68 66 65 64 64 65 65 63 62 61 61 62 62 62 63 65 67 69 68 67 67 67 66 65 65 65 65 64 64 64 63 62 60 58 56 55 55 56 56 57 58 59 60 61 63 64 62 64 67 63 61 64 66 67 69 69 69 69 69 69 68 68 70
70 69 68 67 67 68 68 66 64 61 61 63 64 64 65 67 69 70 70 70 71 70 68 68 67 67 66 65 65 64 63 62 60 58 56 56 56 57 57 59 60 61 62 63 63 61 59 63 65 59 59 64 66 67 69 69 68 69 69 70 71 71 72
72 71 70 70 70 70 70 69 66 62 62 64 65 66 68 69 70 71 70 72 73 72 71 71 70 69 68 66 65 64 63 62 60 58 57 57 58 58 60 61 62 64 65 64 64 63 60 60 61 59 61 65 66 67 68 67 67 68 68 69 70 71 71
74 74 73 73 73 72 72 71 68 64 64 66 67 68 69 70 71 72 72 73 74 73 73 73 72 71 70 68 66 64 63 62 60 59 58 58 59 61 62 63 64 66 68 67 68 67 60 56 58 61 63 66 67 67 67 67 68 68 68 69 70 69 68
77 76 75 75 75 74 73 72 70 67 67 68 69 70 70 71 72 73 73 73 74 74 74 73 73 72 71 69 66 64 63 62 61 60 59 60 61 62 64 65 66 68 70 70 70 69 64 61 62 63 65 68 68 66 67 68 68 67 67 68 68 67 66
79 78 77 76 76 75 73 73 72 70 69 69 70 71 71 72 73 73 74 74 74 74 74 74 73 72 71 69 67 65 65 64 63 62 61 62 64 65 66 68 69 70 72 73 72 69 67 67 67 66 67 68 65 65 67 66 65 65 66 67 68 68 66
79 78 78 77 77 76 75 75 74 72 71 71 71 72 72 73 73 73 74 74 74 74 74 74 73 72 70 69 67 67 66 66 65 65 64 65 66 67 69 70 71 72 73 73 72 70 70 69 67 66 65 63 63 64 62 59 60 63 65 67 69 69 68
79 79 79 79 78 78 77 76 75 73 72 71 72 72 73 73 73 74 74 74 74 74 74 74 73 71 70 69 68 68 68 68 68 67 67 67 68 70 71 72 73 73 72 71 71 70 69 66 63 61 60 59 59 56 53 53 59 63 66 69 71 71 72
80 80 80 80 79 79 78 77 76 74 73 72 73 73 72 73 74 73 73 74 74 74 74 73 72 71 69 69 69 69 69 69 69 69 69 69 70 71 72 73 73 72 71 70 70 70 68 65 61 58 57 55 53 51 52 56 62 65 68 71 72 73 75
81 81 80 80 79 79 78 78 76 74 73 73 73 73 73 74 74 73 74 75 75 74 73 72 72 71 70 70 70 70 70 71 71 71 71 70 71 72 73 72 72 72 71 71 71 71 70 67 62 58 56 55 55 56 57 60 63 65 68 71 73 74 76
81 80 80 80 79 79 78 77 75 74 73 73 73 72 71 72 74 74 74 73 73 72 72 72 72 72 72 72 72 72 72 72 72 72 72 72 72 72 73 72 72 72 73 72 72 71 70 68 64 61 61 61 60 58 59 61 65 68 70 72 73 75 78
80 80 80 79 79 78 77 76 75 74 72 72 72 70 68 69 72 72 72 71 71 72 73 73 73 73 74 74 74 74 73 73 73 73 74 74 73 73 74 73 73 74 74 74 73 72 71 68 64 61 61 59 56 57 61 66 69 70 72 74 75 78 82
80 80 80 79 78 78 77 75 74 73 72 71 71 69 68 69 70 70 71 72 73 73 74 74 74 75 75 75 75 74 74 74 75 75 75 75 75 75 74 74 74 76 76 75 74 73 70 66 62 60 59 58 58 62 67 70 70 71 73 76 80 84 87
79 79 79 78 77 76 75 74 73 72 71 70 69 69 69 70 71 71 72 73 74 74 75 75 76 76 76 76 75 75 75 75 75 76 76 76 76 75 75 74 75 77 77 76 74 71 67 64 61 60 61 62 64 66 68 70 71 74 78 81 85 88 89
78 78 78 77 77 76 75 74 73 72 71 71 70 71 72 74 74 74 74 74 74 76 76 76 76 76 76 77 76 76 76 76 76 77 77 77 78 77 76 75 76 76 75 72 68 64 61 61 62 64 65 66 67 68 70 73 77 81 84 86 88 89 89
77 77 77 77 76 76 76 75 74 74 73 73 73 74 75 75 75 75 76 76 76 76 76 76 77 77 77 78 78 77 77 77 78 79 79 79 79 78 78 77 76 74 71 66 62 60 60 62 65 67 68 68 69 73 78 81 84 86 87 87 88 88 90
76 77 77 77 77 77 76 76 76 76 76 76 76 75 75 75 76 77 77 77 77 77 77 77 78 78 78 78 78 79 79 79 80 81 80 80 79 79 77 74 69 64 60 57 57 60 63 65 67 70 71 73 78 83 86 86 86 86 86 87 88 91 93
76 77 77 78 77 77 78 78 78 78 78 78 78 77 77 77 77 78 78 78 78 78 78 78 78 79 79 79 79 80 80 80 81 82 81 81 80 78 75 69 63 60 60 60 62 66 69 72 75 78 81 83 86 87 87 86 85 86 87 88 91 93 93
77 78 78 78 78 78 79 79 80 80 80 80 80 80 79 79 78 78 78 78 78 78 78 79 79 79 79 80 81 81 81 81 81 81 81 81 80 78 75 70 64 61 62 66 71 75 78 81 83 85 86 87 86 86 86 86 86 87 89 90 92 92 93